Tracking 28794 objects as of 19-Apr-2024
HD Live streaming from Space Station
objects crossing your sky now

FENGYUN 1C DEB

Track FENGYUN 1C DEB now!
10-day predictions


NORAD ID: 32454
Int'l Code: 1999-025DBS
Perigee: 635.4 km
Apogee: 992.4 km
Inclination: 98.4 °
Period: 101.0 minutes
Semi major axis: 7184 km
RCS: 0.009 m2 (small)
Launch date: May 10, 1999
Source: People's Republic of China (PRC)
Launch site: Taiyaun Space Center, China (TSC)

Note: This is SATELLITE DEBRIS
Your satellite tracking list
Your tracking list is empty




NASA's NSSDC Master Catalog

Two Line Element Set (TLE):
1 32454U 99025DBS 24108.83201077  .00033242  00000-0  10142-1 0  9999
2 32454  98.4164 127.3647 0248430  81.4658 281.4588 14.25516911861247
Source of the keplerian elements: AFSPC